Location: Aldenham
(51.6667°N, 0.3500°W)
Time: 07:30:08
(UTC+00:00)

Explorer 7 - Pass Details

Date: 19 February 2026
Orbit: 430 x 541 km, 50.2° (Epoch: 12 March)

Event Time Altitude Azimuth Distance (km) Brightness Sun altitude
Rises 14:24:50 0° 211° (SSW) 2,413 11.7 21.2°
Reaches altitude 10° 14:27:19 10° 193° (SSW) 1,562 10.6 21.0°
Maximum altitude 14:29:54 19° 145° (SE) 1,126 8.8 20.8°
Drops below altitude 10° 14:32:34 10° 98° (E) 1,609 9.0 20.6°
Sets 14:35:10 0° 81° (E) 2,513 9.8 20.3°
